Location: Okie-Tex Star Party
(36.8978°N, 102.9520°W)
Time: 23:40:24
(UTC-05:00)

Amateur Radio Satellites - All Passes

Search period start: 25 May 2016 23:10
Search period end: 26 May 2016 23:10
Location: Okie-Tex Star Party, 36.8978°N, 102.9520°W

Satellite Date Start Highest point End Downlink Frequencies (MHz)
Time Altitude Azimuth
HO-68 25 May 23:11:01 23:13:32 12° 271° (W) 23:16:03 435.675
CUBEBUG 2 25 May 23:17:57 23:19:54 13° 268° (W) 23:21:50 437.445
ZACube-1 25 May 23:19:58 23:23:27 24° 264° (W) 23:26:54 437.345
ANTELSAT 25 May 23:24:33 23:27:47 20° 95° (E) 23:31:02 437.575/2403.000
CUBEBUG 1 25 May 23:25:39 23:26:10 10° 63° (ENE) 23:26:41 437.445
VELOX 1 25 May 23:26:38 23:27:34 11° 63° (ENE) 23:28:29 145.980
AIST 1 25 May 23:43:22 23:46:29 19° 286° (WNW) 23:49:37
HUMSAT D 25 May 23:45:35 23:49:34 51° 260° (W) 23:53:33 437.325/437.525
AISAT 25 May 23:59:19 00:03:02 26° 69° (ENE) 00:06:46 437.250
Cosmos 2499 26 May 00:02:42 00:09:51 87° 96° (E) 00:17:31 435.465 / 435.565
BEESAT 2 26 May 00:06:29 00:07:47 11° 252° (WSW) 00:09:06 435.950
DANDE 26 May 00:07:13 00:15:03 41° 73° (ENE) 00:22:14 436.750
50 SAT 26 May 00:10:17 00:13:31 31° 72° (ENE) 00:16:47 437.505
UKube-1 26 May 00:18:32 00:22:11 27° 70° (ENE) 00:25:51 .
AIST 2 26 May 00:18:44 00:22:47 50° 57° (ENE) 00:26:48 435.215
UNISAT 6 26 May 00:18:58 00:23:17 89° 282° (WNW) 00:27:39 437.425
TIGRISAT 26 May 00:27:16 00:31:33 76° 284° (WNW) 00:35:52 435.000
ESTCUBE 1 26 May 00:28:15 00:32:45 79° 77° (ENE) 00:37:18 437.505/2401.250
POPSAT HIP 1 26 May 00:29:24 00:32:19 18° 94° (E) 00:35:13 437.405
QB50P1 26 May 00:29:57 00:32:57 19° 95° (E) 00:35:55 145.935-145.965
QB50P2 26 May 00:31:20 00:34:32 21° 95° (E) 00:37:43 145.880/145.840
ISS 26 May 00:31:36 00:33:51 17° 333° (NNW) 00:36:05 145.825
CUSAT 1 26 May 00:32:51 00:40:40 77° 264° (W) 00:47:06 437.405
PHONESAT 2.4 26 May 00:32:59 00:36:08 88° 162° (SSE) 00:39:16 2401.200-2431.200
POLYITAN 1 26 May 00:33:45 00:36:58 21° 95° (E) 00:40:11 437.675
GONETS M04 26 May 00:39:24 00:47:16 36° 286° (WNW) 00:55:10
RS-15 26 May 00:40:46 00:48:21 18° 15° (NNE) 00:56:01 29.354- 29.394
NANOSAT C BR1 26 May 00:48:59 00:52:41 30° 97° (E) 00:56:22 145.865
CUBEBUG 1 26 May 00:57:25 01:01:49 70° 258° (WSW) 01:06:16 437.445
VELOX 1 26 May 00:58:59 01:03:25 69° 259° (WSW) 01:07:54 145.980
DX 1 26 May 01:00:37 01:05:00 77° 258° (WSW) 01:09:24 434.975-435.025
ANTELSAT 26 May 01:00:46 01:04:29 29° 289° (WNW) 01:08:15 437.575/2403.000
DUCHIFAT 1 26 May 01:28:11 01:32:23 87° 104° (ESE) 01:36:32 145.980
SO-50 26 May 01:32:00 01:36:37 44° 115° (ESE) 01:41:16 436.795
SPROUT 26 May 01:33:41 01:37:58 73° 258° (WSW) 01:42:17 437.525
AISAT 26 May 01:35:43 01:39:25 25° 264° (W) 01:43:08 437.250
50 SAT 26 May 01:45:37 01:47:21 13° 267° (W) 01:49:05 437.505
DANDE 26 May 01:50:06 01:57:53 43° 271° (W) 02:04:57 436.750
SWISSCUBE 26 May 01:54:27 01:55:28 11° 62° (ENE) 01:56:28 437.505
UKube-1 26 May 01:54:45 01:58:11 23° 264° (W) 02:01:37 .
BUGSAT 1 26 May 01:54:47 01:58:50 81° 102° (ESE) 02:02:50 437.445
AIST 2 26 May 01:59:02 02:00:48 12° 252° (WSW) 02:02:32 435.215
ITUPSAT 1 26 May 01:59:33 02:00:32 11° 62° (ENE) 02:01:32 437.325
Cosmos 2499 26 May 02:00:23 02:04:07 14° 296° (WNW) 02:08:00 435.465 / 435.565
POPSAT HIP 1 26 May 02:04:26 02:08:08 31° 289° (WNW) 02:11:50 437.405
QB50P1 26 May 02:05:03 02:08:44 30° 289° (WNW) 02:12:24 145.935-145.965
TISAT 1 26 May 02:05:12 02:09:24 68° 76° (ENE) 02:13:36 437.305
QB50P2 26 May 02:06:44 02:10:18 28° 290° (WNW) 02:13:53 145.880/145.840
POLYITAN 1 26 May 02:09:12 02:12:44 27° 290° (WNW) 02:16:17 437.675
PHONESAT 2.4 26 May 02:10:03 02:13:03 41° 357° (N) 02:16:03 2401.200-2431.200
Oscar 19 26 May 02:16:55 02:20:26 18° 93° (E) 02:23:55 437.125/150
CUSAT 1 26 May 02:18:50 02:21:07 12° 284° (WNW) 02:23:19 437.405
BEESAT 26 May 02:21:48 02:25:09 19° 66° (ENE) 02:28:30 436.000
JAS-2 26 May 02:23:42 02:31:00 54° 98° (E) 02:37:29 435.910
NANOSAT C BR1 26 May 02:25:12 02:28:12 19° 292° (WNW) 02:31:12 145.865
RS-15 26 May 02:53:50 03:05:27 44° 47° (NE) 03:16:59 29.354- 29.394
YUBILEINY 26 May 03:07:01 03:12:02 16° 64° (ENE) 03:17:04 435.215
SO-50 26 May 03:13:23 03:17:17 23° 311° (NW) 03:21:11 436.795
SWISSCUBE 26 May 03:27:50 03:32:35 77° 258° (WSW) 03:37:21 437.505
ITUPSAT 1 26 May 03:32:56 03:37:41 77° 257° (WSW) 03:42:28 437.325
PHONESAT 2.4 26 May 03:46:59 03:50:04 59° 13° (NNE) 03:53:09 2401.200-2431.200
KKS-1 26 May 03:48:21 03:51:21 18° 67° (ENE) 03:54:22 437.445
MOZHAYETS 4 26 May 03:50:55 03:53:09 14° 65° (ENE) 03:55:22
AO-7 26 May 03:51:40 03:53:53 11° 89° (E) 03:56:06 29.400- 29.500
Oscar 19 26 May 03:55:02 03:59:57 46° 288° (WNW) 04:04:50 437.125/150
BEESAT 26 May 03:58:10 04:02:37 40° 261° (W) 04:07:06 436.000
Cosmos 2491 26 May 03:59:26 04:05:02 19° 79° (E) 04:10:36 435.465 / 435.565
Gurwin Techsat 1B 26 May 04:02:19 04:07:40 83° 103° (ESE) 04:12:59 435.225
JAS-2 26 May 04:09:23 04:15:27 28° 298° (WNW) 04:21:03 435.910
STARS 26 May 04:28:30 04:32:04 24° 69° (ENE) 04:35:37 437.465
ITAMSAT 1 26 May 04:32:12 04:37:22 61° 101° (ESE) 04:42:31 435.822/435.867
YUBILEINY 26 May 05:01:17 05:10:05 88° 85° (E) 05:18:53 435.215
RS-15 26 May 05:06:26 05:18:21 59° 249° (WSW) 05:30:10 29.354- 29.394
CUBESAT XI-V 26 May 05:12:11 05:13:31 11° 63° (ENE) 05:14:50 437.345
Cosmos 2504 26 May 05:16:22 05:23:47 33° 74° (ENE) 05:31:29 435.465 / 435.565
KKS-1 26 May 05:23:26 05:27:37 38° 261° (W) 05:31:48 437.445
ISS 26 May 05:23:42 05:26:37 29° 33° (NNE) 05:29:31 145.825
PHONESAT 2.4 26 May 05:23:54 05:26:44 32° 209° (SSW) 05:29:33 2401.200-2431.200
MOZHAYETS 4 26 May 05:25:23 05:29:49 54° 260° (W) 05:34:18
AO-7 26 May 05:39:27 05:47:50 73° 106° (ESE) 05:56:12 29.400- 29.500
Gurwin Techsat 1B 26 May 05:45:02 05:46:51 12° 299° (WNW) 05:48:41 435.225
Cosmos 2491 26 May 05:51:54 06:00:44 80° 277° (W) 06:09:37 435.465 / 435.565
STARS 26 May 06:04:34 06:08:18 26° 263° (W) 06:12:01 437.465
ITAMSAT 1 26 May 06:13:16 06:16:18 16° 297° (WNW) 06:19:19 435.822/435.867
HORYU 2 26 May 06:43:00 06:47:27 88° 104° (ESE) 06:51:53 437.375
CUBESAT XI-V 26 May 06:45:36 06:50:15 71° 259° (W) 06:54:56 437.345
NOAA 15 26 May 06:49:53 06:53:24 18° 93° (E) 06:56:53 137.62
Cubesat XI-IV 26 May 06:50:03 06:51:33 11° 90° (E) 06:53:04 437.490
AO-85 26 May 06:57:21 07:02:24 40° 113° (ESE) 07:07:25 145.980
ISS 26 May 07:00:15 07:02:58 24° 229° (SW) 07:05:40 145.825
YUBILEINY 26 May 07:00:47 07:05:37 16° 282° (WNW) 07:10:27 435.215
Cosmos 2504 26 May 07:09:16 07:17:19 51° 270° (W) 07:25:43 435.465 / 435.565
LilacSat-2 26 May 07:11:28 07:13:24 14° 93° (E) 07:15:20 437.200
STRAND 1 26 May 07:23:06 07:27:04 24° 67° (ENE) 07:31:03 437.568
AO-7 26 May 07:33:30 07:39:48 25° 303° (WNW) 07:46:07 29.400- 29.500
CUTE-I 26 May 07:34:05 07:38:54 33° 97° (E) 07:43:41 437.470
JUGNU 26 May 07:42:07 07:43:23 11° 168° (SSE) 07:44:40 437.505
Cosmos 2491 26 May 07:54:42 07:59:02 14° 297° (WNW) 08:03:23 435.465 / 435.565
BRITE-PL 26 May 07:55:14 08:00:21 64° 100° (E) 08:05:01 437.365/2234.400
NOAA 18 26 May 08:11:21 08:16:51 90° 85° (E) 08:22:22 137.9125
Cubesat XI-IV 26 May 08:26:47 08:32:09 78° 285° (WNW) 08:37:30 437.490
NOAA 15 26 May 08:28:18 08:33:26 50° 288° (WNW) 08:38:30 137.62
GOMX 1 26 May 08:28:40 08:33:21 64° 100° (E) 08:37:41 467.674
AO-85 26 May 08:38:16 08:42:59 29° 309° (NW) 08:47:39 145.980
LilacSat-2 26 May 08:44:24 08:47:48 33° 287° (WNW) 08:51:13 437.200
HO-68 26 May 08:49:20 08:54:30 21° 93° (E) 08:59:38 435.675
GONETS M04 26 May 08:56:21 09:02:10 19° 66° (ENE) 09:07:58
CANX-2 26 May 08:58:30 09:01:24 18° 94° (E) 09:04:17 2200.000
STRAND 1 26 May 09:01:20 09:06:00 37° 262° (W) 09:10:43 437.568
SEEDS 26 May 09:05:24 09:07:18 13° 92° (E) 09:09:11 437.485
PRISM 26 May 09:08:32 09:12:30 46° 73° (ENE) 09:16:30 437.425
CUTE-I 26 May 09:14:17 09:18:47 28° 292° (WNW) 09:23:18 437.470
CUTE 1.7 + AOD 2 26 May 09:25:18 09:29:08 31° 97° (E) 09:32:57 437.475
DOVE 4 26 May 09:25:54 09:30:15 63° 285° (WNW) 09:34:24 437.250
JUGNU 26 May 09:28:23 09:31:34 15° 178° (S) 09:34:45 437.505
CUBEBUG 2 26 May 09:34:11 09:35:20 11° 92° (E) 09:36:28 437.445
BRITE-PL 26 May 09:35:40 09:38:05 14° 298° (WNW) 09:40:27 437.365/2234.400
AUBIESAT-1 26 May 09:42:37 09:45:46 42° 104° (ESE) 09:48:56 437.475
M-CUBED/EXP-1 PRIME 26 May 09:47:48 09:51:04 68° 106° (ESE) 09:54:18 437.505
AIST 1 26 May 09:51:12 09:55:34 86° 83° (E) 09:59:53
COMPASS 1 26 May 09:52:54 09:56:43 32° 97° (E) 10:00:31 437.405
NOAA 18 26 May 09:55:02 09:56:42 11° 301° (WNW) 09:58:23 137.9125
Cosmos 2499 26 May 09:55:56 10:03:13 30° 72° (ENE) 10:10:39 435.465 / 435.565
AAUSAT CUBESAT 2 26 May 09:57:09 10:00:49 29° 96° (E) 10:04:28 437.432
UWE-3 26 May 10:04:37 10:07:30 18° 94° (E) 10:10:24 435.000/436.395/437.385
SO-50 26 May 10:06:11 10:09:53 22° 48° (NE) 10:13:29 436.795
CINEMA 3 26 May 10:08:06 10:12:17 75° 283° (WNW) 10:16:24 145.822/145.860
GOMX 1 26 May 10:09:15 10:10:43 11° 298° (WNW) 10:12:11 467.674
FUNcube-1 26 May 10:13:51 10:16:03 14° 93° (E) 10:18:16 145.935
ANTELSAT 26 May 10:22:16 10:24:41 15° 66° (ENE) 10:27:04 437.575/2403.000
O/OREOS (USA 219) 26 May 10:25:23 10:29:34 36° 105° (ESE) 10:33:44 437.305
CANX-2 26 May 10:33:26 10:37:19 34° 288° (WNW) 10:41:11 2200.000
HO-68 26 May 10:35:34 10:42:39 65° 289° (WNW) 10:49:43 435.675
SEEDS 26 May 10:39:09 10:43:13 46° 286° (WNW) 10:47:17 437.485
DELFI C3 26 May 10:41:10 10:43:37 16° 93° (E) 10:46:05 145.870
PRISM 26 May 10:46:25 10:48:02 12° 268° (W) 10:49:40 437.425
GONETS M04 26 May 10:51:16 10:59:59 81° 265° (W) 11:08:39
Oscar 11 26 May 10:58:14 11:02:32 59° 100° (E) 11:06:49 145.826/435.025
PCSat 26 May 10:59:15 11:04:36 66° 114° (ESE) 11:10:00 145.827
CUTE 1.7 + AOD 2 26 May 11:01:39 11:04:44 20° 291° (WNW) 11:07:49 437.475
CUBEBUG 2 26 May 11:08:11 11:12:12 50° 285° (WNW) 11:16:16 437.445
ZACube-1 26 May 11:09:21 11:13:32 71° 102° (ESE) 11:17:47 437.345
UNISAT 6 26 May 11:15:22 11:19:41 59° 75° (ENE) 11:23:57 437.425
JUGNU 26 May 11:17:18 11:19:46 13° 189° (S) 11:22:13 437.505
SRMSAT 26 May 11:19:00 11:22:00 14° 176° (S) 11:25:00 437.500
POPSAT HIP 1 26 May 11:21:35 11:22:49 11° 65° (ENE) 11:24:03 437.405
QB50P1 26 May 11:21:56 11:23:22 11° 65° (ENE) 11:24:47 145.935-145.965
QB50P2 26 May 11:23:13 11:25:05 13° 65° (ENE) 11:26:57 145.880/145.840
TIGRISAT 26 May 11:23:24 11:27:46 69° 76° (ENE) 11:32:04 435.000
POLYITAN 1 26 May 11:25:35 11:27:31 13° 65° (ENE) 11:29:27 437.675
COMPASS 1 26 May 11:29:07 11:32:01 18° 292° (WNW) 11:34:56 437.405
HUMSAT D 26 May 11:31:21 11:34:55 27° 97° (E) 11:38:30 437.325/437.525
AAUSAT CUBESAT 2 26 May 11:33:00 11:36:06 20° 291° (WNW) 11:39:11 437.432
NANOSAT C BR1 26 May 11:39:41 11:42:31 18° 68° (ENE) 11:45:22 145.865
UWE-3 26 May 11:40:18 11:44:00 31° 288° (WNW) 11:47:43 435.000/436.395/437.385
SO-50 26 May 11:46:10 11:50:30 39° 246° (WSW) 11:54:41 436.795
Cosmos 2499 26 May 11:48:18 11:56:40 58° 269° (W) 12:05:17 435.465 / 435.565
FUNcube-1 26 May 11:48:31 11:52:27 41° 287° (WNW) 11:56:26 145.935
CUSAT 1 26 May 11:51:46 11:55:48 18° 80° (E) 12:00:21 437.405
ANTELSAT 26 May 11:56:48 12:01:01 44° 261° (W) 12:05:10 437.575/2403.000
O/OREOS (USA 219) 26 May 12:05:43 12:09:04 20° 300° (WNW) 12:12:24 437.305
DELFI C3 26 May 12:14:54 12:18:34 34° 288° (WNW) 12:22:12 145.870
DUCHIFAT 1 26 May 12:17:37 12:21:38 45° 73° (ENE) 12:25:40 145.980
BEESAT 2 26 May 12:17:49 12:20:12 15° 109° (ESE) 12:22:34 435.950
ESTCUBE 1 26 May 12:23:56 12:27:15 20° 94° (E) 12:30:33 437.505/2401.250
HO-68 26 May 12:27:17 12:29:00 11° 307° (NW) 12:30:43 435.675
JAS-2 26 May 12:33:24 12:38:44 22° 60° (ENE) 12:44:18 435.910
Oscar 11 26 May 12:36:44 12:38:08 11° 295° (WNW) 12:39:31 145.826/435.025
BUGSAT 1 26 May 12:42:00 12:45:56 39° 73° (ENE) 12:49:52 437.445
PCSat 26 May 12:44:49 12:48:28 18° 312° (NW) 12:52:08 145.827
CUBEBUG 1 26 May 12:48:54 12:52:30 25° 96° (E) 12:56:03 437.445
DX 1 26 May 12:51:51 12:55:10 21° 95° (E) 12:58:28 434.975-435.025
GONETS M04 26 May 12:51:53 12:55:17 13° 284° (WNW) 12:58:41
VELOX 1 26 May 12:51:53 12:55:36 26° 96° (E) 12:59:16 145.980
BEESAT 3 26 May 12:53:40 12:57:35 79° 118° (ESE) 13:01:33 437.485
POPSAT HIP 1 26 May 12:53:54 12:58:05 58° 259° (W) 13:02:16 437.405
QB50P1 26 May 12:54:28 12:58:38 56° 259° (W) 13:02:48 145.935-145.965
UNISAT 6 26 May 12:56:11 12:56:43 10° 269° (W) 12:57:15 437.425
QB50P2 26 May 12:56:18 13:00:25 50° 260° (W) 13:04:34 145.880/145.840
POLYITAN 1 26 May 12:58:46 13:02:53 49° 260° (W) 13:07:00 437.675
HUMSAT D 26 May 13:07:14 13:10:22 21° 291° (WNW) 13:13:32 437.325/437.525
SRMSAT 26 May 13:07:37 13:10:21 13° 187° (S) 13:13:04 437.500
DANDE 26 May 13:13:04 13:17:45 37° 87° (E) 13:23:46 436.750
NANOSAT C BR1 26 May 13:14:07 13:17:58 34° 262° (W) 13:21:51 145.865
50 SAT 26 May 13:14:58 13:18:38 58° 101° (E) 13:22:18 437.505
SPROUT 26 May 13:22:38 13:25:57 22° 95° (E) 13:29:15 437.525
AISAT 26 May 13:27:15 13:31:40 72° 102° (ESE) 13:36:02 437.250
CUSAT 1 26 May 13:30:52 13:36:47 69° 281° (W) 13:44:16 437.405
Oscar 19 26 May 13:31:29 13:35:27 23° 66° (ENE) 13:39:25 437.125/150
UKube-1 26 May 13:42:59 13:47:19 68° 102° (ESE) 13:51:35 .
Gurwin Techsat 1B 26 May 13:45:03 13:47:10 12° 61° (ENE) 13:49:16 435.225
TISAT 1 26 May 13:53:28 13:55:08 12° 92° (E) 13:56:46 437.305
BEESAT 2 26 May 13:53:59 13:57:42 38° 305° (NW) 14:01:27 435.950
DUCHIFAT 1 26 May 13:55:38 13:57:32 13° 268° (W) 13:59:27 145.980
ESTCUBE 1 26 May 14:00:00 14:04:06 34° 289° (WNW) 14:08:12 437.505/2401.250
AIST 2 26 May 14:15:10 14:18:00 18° 110° (ESE) 14:20:52 435.215
JAS-2 26 May 14:15:39 14:22:48 75° 258° (WSW) 14:30:38 435.910
BUGSAT 1 26 May 14:19:05 14:21:27 15° 267° (W) 14:23:49 437.445
CUBEBUG 1 26 May 14:25:05 14:28:41 25° 291° (WNW) 14:32:15 437.445
DX 1 26 May 14:27:34 14:31:20 29° 290° (WNW) 14:35:06 434.975-435.025
VELOX 1 26 May 14:28:20 14:31:57 25° 291° (WNW) 14:35:32 145.980
BEESAT 3 26 May 14:35:26 14:35:48 10° 316° (NW) 14:36:10 437.485
AO-7 26 May 14:47:42 14:52:24 17° 52° (NE) 14:57:06 29.400- 29.500
DANDE 26 May 14:56:15 15:00:45 27° 293° (WNW) 15:06:23 436.750
SPROUT 26 May 14:58:16 15:01:51 27° 290° (WNW) 15:05:25 437.525
Oscar 19 26 May 15:09:37 15:14:28 40° 261° (W) 15:19:22 437.125/150
CUSAT 1 26 May 15:18:54 15:20:40 11° 303° (WNW) 15:22:30 437.405
Gurwin Techsat 1B 26 May 15:21:05 15:26:23 79° 257° (WSW) 15:31:44 435.225
TISAT 1 26 May 15:27:00 15:31:00 46° 287° (WNW) 15:34:59 437.305
SWISSCUBE 26 May 15:30:34 15:34:52 32° 98° (E) 15:39:08 437.505
AO-85 26 May 15:32:37 15:35:51 18° 45° (NE) 15:38:54 145.980
ITUPSAT 1 26 May 15:35:59 15:40:17 32° 97° (E) 15:44:35 437.325
ITAMSAT 1 26 May 15:47:51 15:52:59 74° 74° (ENE) 15:58:09 435.822/435.867
AIST 2 26 May 15:52:26 15:56:13 35° 306° (NW) 16:00:02 435.215
BEESAT 26 May 16:00:06 16:04:51 61° 101° (E) 16:09:35 436.000
Cosmos 2491 26 May 16:05:29 16:13:50 47° 77° (ENE) 16:22:06 435.465 / 435.565
YUBILEINY 26 May 16:06:09 16:11:50 20° 80° (E) 16:17:31 435.215
JAS-2 26 May 16:06:57 16:09:03 11° 276° (W) 16:11:11 435.910
AO-7 26 May 16:35:35 16:43:51 80° 71° (ENE) 16:52:12 29.400- 29.500
SWISSCUBE 26 May 17:08:39 17:12:28 24° 292° (WNW) 17:16:16 437.505
AO-85 26 May 17:12:16 17:16:39 47° 245° (WSW) 17:20:39 145.980
ITUPSAT 1 26 May 17:14:06 17:17:56 24° 292° (WNW) 17:21:45 437.325
KKS-1 26 May 17:16:21 17:20:37 46° 100° (E) 17:24:51 437.445
RS-15 26 May 17:16:24 17:25:28 30° 103° (ESE) 17:34:51 29.354- 29.394
MOZHAYETS 4 26 May 17:22:34 17:26:56 41° 98° (E) 17:31:18
ITAMSAT 1 26 May 17:31:27 17:32:56 11° 269° (W) 17:34:26 435.822/435.867
HORYU 2 26 May 17:38:33 17:42:53 60° 74° (ENE) 17:47:15 437.375
BEESAT 26 May 17:39:47 17:42:06 14° 296° (WNW) 17:44:23 436.000
Cosmos 2504 26 May 17:53:54 17:59:24 24° 83° (E) 18:05:06 435.465 / 435.565
STARS 26 May 17:55:22 17:59:42 64° 101° (ESE) 18:04:01 437.465
NOAA 18 26 May 17:57:27 18:00:52 17° 63° (ENE) 18:04:16 137.9125
YUBILEINY 26 May 17:58:54 18:07:35 76° 278° (W) 18:16:19 435.215
Cosmos 2491 26 May 18:02:46 18:10:20 34° 275° (W) 18:17:53 435.465 / 435.565
NOAA 15 26 May 18:07:34 18:11:43 24° 66° (ENE) 18:15:53 137.62
Cubesat XI-IV 26 May 18:09:05 18:12:19 17° 63° (ENE) 18:15:33 437.490
AO-7 26 May 18:31:54 18:37:22 19° 267° (W) 18:42:53 29.400- 29.500
CUBESAT XI-V 26 May 18:44:41 18:48:59 34° 97° (E) 18:53:14 437.345
CUTE-I 26 May 18:53:38 18:58:37 43° 71° (ENE) 19:03:38 437.470
KKS-1 26 May 18:54:17 18:56:47 15° 295° (WNW) 18:59:16 437.445
DOVE 4 26 May 18:54:38 18:55:54 11° 63° (ENE) 18:57:10 437.250
MOZHAYETS 4 26 May 19:00:40 19:03:46 18° 293° (WNW) 19:06:52
BRITE-PL 26 May 19:02:10 19:07:39 59° 74° (ENE) 19:13:16 437.365/2234.400
HO-68 26 May 19:18:34 19:21:32 13° 54° (NE) 19:24:31 435.675
HORYU 2 26 May 19:18:57 19:19:47 10° 269° (W) 19:20:37 437.375
LilacSat-2 26 May 19:23:28 19:27:17 80° 75° (ENE) 19:31:05 437.200
RS-15 26 May 19:25:28 19:36:44 71° 303° (WNW) 19:48:43 29.354- 29.394
GOMX 1 26 May 19:32:59 19:38:21 57° 74° (ENE) 19:43:40 467.674
STARS 26 May 19:34:27 19:35:29 11° 297° (WNW) 19:36:31 437.465
NOAA 18 26 May 19:35:37 19:40:59 60° 258° (WSW) 19:46:24 137.9125
Cosmos 2504 26 May 19:45:14 19:52:11 52° 282° (WNW) 19:59:30 435.465 / 435.565
NOAA 15 26 May 19:46:18 19:51:13 39° 261° (W) 19:56:12 137.62
Cubesat XI-IV 26 May 19:46:38 19:51:51 59° 259° (W) 19:57:07 437.490
PCSat 26 May 19:49:40 19:54:33 33° 55° (NE) 19:59:23 145.827
YUBILEINY 26 May 20:02:16 20:05:55 13° 298° (WNW) 20:09:35 435.215
CUTE 1.7 + AOD 2 26 May 20:16:41 20:19:26 17° 68° (ENE) 20:22:11 437.475
CUBESAT XI-V 26 May 20:22:32 20:26:07 22° 292° (WNW) 20:29:41 437.345
AUBIESAT-1 26 May 20:26:07 20:30:05 42° 69° (ENE) 20:33:49 437.475
DOVE 4 26 May 20:27:36 20:32:53 87° 252° (WSW) 20:38:01 437.250
M-CUBED/EXP-1 PRIME 26 May 20:31:32 20:35:47 63° 71° (ENE) 20:39:44 437.505
CUTE-I 26 May 20:34:55 20:38:49 21° 266° (W) 20:42:44 437.470
O/OREOS (USA 219) 26 May 20:37:22 20:41:42 47° 66° (ENE) 20:46:00 437.305
COMPASS 1 26 May 20:42:24 20:45:05 17° 68° (ENE) 20:47:46 437.405
BRITE-PL 26 May 20:42:50 20:46:27 17° 269° (W) 20:50:07 437.365/2234.400
AAUSAT CUBESAT 2 26 May 20:46:23 20:48:43 15° 67° (ENE) 20:51:05 437.432
HO-68 26 May 21:00:57 21:08:03 76° 72° (ENE) 21:15:13 435.675
UWE-3 26 May 21:00:59 21:02:38 12° 66° (ENE) 21:04:16 435.000/436.395/437.385
CINEMA 3 26 May 21:06:38 21:11:26 74° 76° (ENE) 21:16:02 145.822/145.860
GOMX 1 26 May 21:13:10 21:16:40 17° 268° (W) 21:20:10 467.674
STRAND 1 26 May 21:13:30 21:18:41 89° 100° (E) 21:23:51 437.568
BEESAT 3 26 May 21:13:34 21:16:44 22° 51° (NE) 21:19:52 437.485
CANX-2 26 May 21:23:17 21:27:26 65° 259° (W) 21:31:38 2200.000
SEEDS 26 May 21:28:04 21:32:14 87° 73° (ENE) 21:36:26 437.485
PCSat 26 May 21:33:06 21:37:51 31° 251° (WSW) 21:42:34 145.827
RS-15 26 May 21:43:01 21:51:53 24° 331° (NNW) 22:01:08 29.354- 29.394
Oscar 11 26 May 21:50:49 21:54:40 33° 72° (ENE) 21:58:32 145.826/435.025
CUTE 1.7 + AOD 2 26 May 21:51:09 21:54:59 34° 263° (W) 21:58:51 437.475
GONETS M04 26 May 21:55:07 22:01:38 24° 82° (E) 22:08:08
ISS 26 May 22:01:40 22:04:29 28° 132° (SE) 22:07:20 145.825
AUBIESAT-1 26 May 22:02:32 22:04:39 14° 261° (W) 22:06:43 437.475
ZACube-1 26 May 22:02:55 22:06:55 40° 73° (ENE) 22:10:50 437.345
CUBEBUG 2 26 May 22:03:28 22:07:54 85° 257° (WSW) 22:12:14 437.445
BEESAT 2 26 May 22:13:49 22:17:45 56° 57° (ENE) 22:21:39 435.950
COMPASS 1 26 May 22:16:36 22:20:20 34° 262° (W) 22:24:09 437.405
AIST 1 26 May 22:17:43 22:22:00 56° 94° (E) 22:26:20
O/OREOS (USA 219) 26 May 22:18:28 22:20:38 13° 261° (W) 22:22:47 437.305
AAUSAT CUBESAT 2 26 May 22:20:00 22:23:51 39° 262° (W) 22:27:45 437.432
HUMSAT D 26 May 22:21:45 22:23:59 15° 67° (ENE) 22:26:15 437.325/437.525
PRISM 26 May 22:27:18 22:31:29 75° 284° (WNW) 22:35:37 437.425
CUSAT 1 26 May 22:29:07 22:33:01 15° 60° (ENE) 22:36:38 437.405
Cosmos 2499 26 May 22:32:04 22:37:03 20° 81° (E) 22:42:12 435.465 / 435.565
UWE-3 26 May 22:34:24 22:38:39 53° 260° (W) 22:42:48 435.000/436.395/437.385
FUNcube-1 26 May 22:41:17 22:45:31 74° 258° (WSW) 22:49:43 145.935
BEESAT 3 26 May 22:51:01 22:54:24 27° 247° (WSW) 22:57:45 437.485
HO-68 26 May 22:51:55 22:56:22 17° 268° (W) 23:00:50 435.675
STRAND 1 26 May 22:56:20 22:57:04 10° 300° (WNW) 22:57:48 437.568
DELFI C3 26 May 22:57:55 23:01:53 84° 259° (W) 23:05:52 145.870
